Meteo Giornale » Osservazioni meteo Italia » Reggio Calabria

ore: 15:50 - Osservazioni Meteo Reggio Calabria
Lat. 38° 4' N Lon. 15° 39' E Alt. 11 metri s.l.m.

sereno Europe/Rome

27 °C

Sereno

Temp. 24 Ore

18 °C

27 °C

Nord

24 Km/h

Dew point 8 °C

Umidità 30 %

Visibilità  10 Km

Il sole sorge alle ore 05:36

Il sole tramonta alle ore 20:13

Data e Ora Cielo e Fenomeni T °C DP °C Um. % Pres. hPa Vis. km Vento km/h
Oggi h: 15:50 sereno Sereno 27 8 30 1017 10 N 24
Oggi h: 14:50 sereno Sereno 27 9 32 1018 10 N 25.9
Oggi h: 13:50 sereno Sereno 27 10 34 1018 10 N/NO 22.2
Oggi h: 12:50 sereno Sereno 26 11 39 1018 10 N/NO 24
Oggi h: 11:50 sereno Sereno 27 9 32 1018 10 NO 33.3
Oggi h: 10:50 sereno Sereno 23 10 43 1018 10 N 22.2
Oggi h: 09:50 sereno Sereno 22 10 46 1018 10 N 16.7
Oggi h: 08:50 sereno Sereno 22 12 53 1018 10 N 18.5
Oggi h: 07:50 sereno Sereno 22 11 49 1018 10 N 14.8
Oggi h: 06:50 sereno Sereno 18 10 59 1018 10 N/NE 13
Oggi h: 05:50 sereno Sereno 19 12 63 1017 10 N 13
Oggi h: 04:50 sereno Sereno 19 13 68 1018 10 N 11.1
Oggi h: 03:50 sereno Sereno 20 13 64 1017 10 N 9.3
Oggi h: 02:50 sereno Sereno 20 13 64 1018 10 N 9.3
Oggi h: 01:50 sereno Sereno 20 13 64 1018 10 N 11.1
Oggi h: 00:50 sereno Sereno 20 12 59 1018 10 N 14.8
Ieri h: 23:50 sereno Sereno 20 12 59 1018 10 N 18.5
Ieri h: 22:50 sereno Sereno 20 11 56 1018 10 N 14.8
Ieri h: 21:50 sereno Sereno 21 12 56 1018 10 N 16.7
Ieri h: 20:50 sereno Sereno 20 12 59 1017 10 N 20.3
Ieri h: 19:50 sereno Sereno 22 12 53 1017 10 N/NO 24
Ieri h: 18:50 sereno Sereno 23 12 49 1016 10 N 20.3
Ieri h: 17:50 sereno Sereno 24 12 47 1016 10 N/NO 27.8
Ieri h: 16:50 sereno Sereno 23 11 46 1016 10 N 29.6